,,,PA_Meas_PMT16A,,PR_Meas_QMR101_102,,RH_Meas_QMH101,,SR_Meas_QMS101,,TA_Meas_QMH101,,GenWind,,GenWind,
date,time,status,PA,status,PR,status,RH,status,SR,status,TA,status,DirAvg,status,SpdAvg,
2011-03-14, 00:00:04,VALID,1003.86,VALID,0,INVALID,163.685,VALID,0,VALID,24.4998,VALID,198,VALID,3.15,
2011-03-14, 00:01:04,VALID,1003.87,VALID,1,INVALID,163.662,VALID,0,VALID,24.4628,VALID,147,VALID,4.46719,
2011-03-14, 00:02:04,VALID,1003.8,VALID,1,INVALID,163.685,VALID,0,VALID,24.3459,VALID,160,VALID,3.5625,
2011-03-14, 00:03:04,VALID,1003.75,VALID,1.5,INVALID,163.708,VALID,0,VALID,24.2078,VALID,155,VALID,4.12461,
2011-03-14, 00:04:04,VALID,1003.76,VALID,1.5,INVALID,163.693,VALID,0,VALID,24.13,VALID,163,VALID,2.3625,
2011-03-14, 00:05:04,VALID,1003.93,VALID,0,INVALID,163.723,VALID,0,VALID,23.9937,VALID,148,VALID,4.86484,
2011-03-14, 00:06:04,VALID,1004.14,VALID,1,INVALID,163.723,VALID,0,VALID,23.9177,VALID,114,VALID,4.37969,
2011-03-14, 00:07:04,VALID,1004.22,VALID,1,INVALID,163.746,VALID,0,VALID,23.7814,VALID,132,VALID,6.6168,
2011-03-14, 00:08:04,VALID,1004.32,VALID,1,INVALID,163.746,VALID,0,VALID,23.7212,VALID,120,VALID,3.68789,
2011-03-14, 00:09:04,VALID,1004.43,VALID,1.5,INVALID,163.723,VALID,0,VALID,23.7035,VALID,134,VALID,3.95117,
2011-03-14, 00:10:04,VALID,1004.45,VALID,1.5,INVALID,163.723,VALID,0,VALID,23.6823,VALID,146,VALID,3.98438,
2011-03-14, 00:11:04,VALID,1004.33,VALID,2,INVALID,163.754,VALID,0,VALID,23.6646,VALID,116,VALID,3.31328,
2011-03-14, 00:12:04,VALID,1004.24,VALID,2,INVALID,163.762,VALID,0,VALID,23.585,VALID,136,VALID,3.39805,
2011-03-14, 00:13:04,VALID,1004.06,VALID,1.5,INVALID,163.746,VALID,0,VALID,23.5284,VALID,147,VALID,2.83984,
2011-03-14, 00:14:04,VALID,1004.08,VALID,0.5,INVALID,163.746,VALID,0,VALID,23.4098,VALID,148,VALID,3.50625,
2011-03-14, 00:15:04,VALID,1004.01,VALID,0.5,INVALID,163.762,VALID,0,VALID,23.3727,VALID,152,VALID,1.56133,
2011-03-14, 00:16:04,VALID,1003.95,VALID,0.5,INVALID,163.762,VALID,0,VALID,23.3532,VALID,122,VALID,2.64727,
2011-03-14, 00:17:04,VALID,1003.96,VALID,0,INVALID,163.746,VALID,0,VALID,23.3337,VALID,158,VALID,1.91562,
2011-03-14, 00:18:04,VALID,1003.98,VALID,0.5,INVALID,163.746,VALID,0,VALID,23.2948,VALID,121,VALID,3.26992,
2011-03-14, 00:19:04,VALID,1003.95,VALID,0.5,INVALID,163.777,VALID,0,VALID,23.2736,VALID,129,VALID,2.7125,
2011-03-14, 00:20:04,VALID,1003.9,VALID,0.5,INVALID,163.769,VALID,0,VALID,23.3143,VALID,124,VALID,2.31602,
2011-03-14, 00:21:04,VALID,1003.87,VALID,0.5,INVALID,163.784,VALID,0,VALID,23.3143,VALID,162,VALID,2.48984,
2011-03-14, 00:22:04,VALID,1003.88,VALID,0,INVALID,163.762,VALID,0,VALID,23.3125,VALID,143,VALID,1.43359,
2011-03-14, 00:23:04,VALID,1003.83,VALID,0,INVALID,163.769,VALID,0,VALID,23.3514,VALID,89,VALID,0.934375,
2011-03-14, 00:24:04,VALID,1003.81,VALID,0,INVALID,163.762,VALID,0,VALID,23.3709,VALID,103,VALID,1.09961,
2011-03-14, 00:25:04,VALID,1003.83,VALID,0.5,INVALID,163.739,VALID,0,VALID,23.3709,VALID,37,VALID,0.8,
2011-03-14, 00:26:04,VALID,1003.81,VALID,0,INVALID,163.754,VALID,0,VALID,23.4116,VALID,36,VALID,0.940625,
2011-03-14, 00:27:04,VALID,1003.84,VALID,0,INVALID,163.754,VALID,0,VALID,23.3709,VALID,20,VALID,0.847266,
2011-03-14, 00:28:04,VALID,1003.88,VALID,0,INVALID,163.754,VALID,0,VALID,23.4116,VALID,28,VALID,1.02695,
2011-03-14, 00:29:04,VALID,1003.92,VALID,0,INVALID,163.746,VALID,0,VALID,23.4116,VALID,79,VALID,0.844922,
2011-03-14, 00:30:04,VALID,1003.9,VALID,0.5,INVALID,163.762,VALID,0,VALID,23.4098,VALID,93,VALID,1.27773,
2011-03-14, 00:31:04,VALID,1003.86,VALID,0,INVALID,163.762,VALID,0,VALID,23.4311,VALID,58,VALID,0.9125,
2011-03-14, 00:32:04,VALID,1003.89,VALID,0,INVALID,163.762,VALID,0,VALID,23.3921,VALID,73,VALID,0.938281,
2011-03-14, 00:33:04,VALID,1003.88,VALID,0,INVALID,163.746,VALID,0,VALID,23.3709,VALID,10,VALID,0.650391,
2011-03-14, 00:34:04,VALID,1003.85,VALID,0,INVALID,163.777,VALID,0,VALID,23.3514,VALID,44,VALID,0.821875,
2011-03-14, 00:35:04,VALID,1003.81,VALID,0,INVALID,163.769,VALID,0,VALID,23.3727,VALID,9,VALID,0.351953,
2011-03-14, 00:36:04,VALID,1003.87,VALID,0,INVALID,163.769,VALID,0,VALID,23.3532,VALID,57,VALID,0.566016,
2011-03-14, 00:37:04,VALID,1003.88,VALID,0.5,INVALID,163.754,VALID,0,VALID,23.2948,VALID,33,VALID,0.841406,
2011-03-14, 00:38:04,VALID,1003.9,VALID,0,INVALID,163.769,VALID,0,VALID,23.2559,VALID,103,VALID,0.857813,
2011-03-14, 00:39:04,VALID,1003.89,VALID,0,INVALID,163.762,VALID,0,VALID,23.1763,VALID,96,VALID,1.6875,
2011-03-14, 00:40:04,VALID,1003.87,VALID,0,INVALID,163.769,VALID,0,VALID,23.1391,VALID,68,VALID,0.969141,
2011-03-14, 00:41:04,VALID,1003.87,VALID,0.5,INVALID,163.777,VALID,0,VALID,23.1179,VALID,67,VALID,1.0707,
2011-03-14, 00:42:04,VALID,1003.85,VALID,0,INVALID,163.792,VALID,0,VALID,23.1197,VALID,84,VALID,0.831641,
2011-03-14, 00:43:04,VALID,1003.88,VALID,0,INVALID,163.777,VALID,0,VALID,23.0772,VALID,68,VALID,1.61445,
2011-03-14, 00:44:04,VALID,1003.87,VALID,0.5,INVALID,163.784,VALID,0,VALID,23.079,VALID,89,VALID,1.50664,
2011-03-14, 00:45:04,VALID,1003.8,VALID,0,INVALID,163.792,VALID,0,VALID,23.0595,VALID,13,VALID,0.742188,
2011-03-14, 00:46:04,VALID,1003.82,VALID,0,INVALID,163.777,VALID,0,VALID,23.0595,VALID,34,VALID,0.491797,
2011-03-14, 00:47:04,VALID,1003.81,VALID,0.5,INVALID,163.777,VALID,0.100563,VALID,23.0595,VALID,106,VALID,0.640625,
2011-03-14, 00:48:04,VALID,1003.76,VALID,0,INVALID,163.784,VALID,0,VALID,23.0401,VALID,93,VALID,0.614062,
2011-03-14, 00:49:04,VALID,1003.78,VALID,0,INVALID,163.777,VALID,0,VALID,23.0401,VALID,33,VALID,0.880859,
2011-03-14, 00:50:04,VALID,1003.75,VALID,0,INVALID,163.8,VALID,0,VALID,23.0206,VALID,84,VALID,1.22617,
2011-03-14, 00:51:04,VALID,1003.74,VALID,0.5,INVALID,163.777,VALID,0,VALID,23.0012,VALID,93,VALID,0.74375,
2011-03-14, 00:52:04,VALID,1003.77,VALID,0,INVALID,163.792,VALID,0,VALID,23.0012,VALID,89,VALID,1.00273,
2011-03-14, 00:53:04,VALID,1003.78,VALID,0.5,INVALID,163.777,VALID,0,VALID,22.9622,VALID,70,VALID,1.74063,
2011-03-14, 00:54:04,VALID,1003.73,VALID,1,INVALID,163.8,VALID,0,VALID,22.9817,VALID,110,VALID,1.39297,
2011-03-14, 00:55:04,VALID,1003.67,VALID,0.5,INVALID,163.792,VALID,0,VALID,22.9622,VALID,104,VALID,1.43633,
2011-03-14, 00:56:04,VALID,1003.6,VALID,0.5,INVALID,163.792,VALID,0,VALID,22.9817,VALID,105,VALID,2.57227,
2011-03-14, 00:57:04,VALID,1003.53,VALID,0.5,INVALID,163.792,VALID,0.100563,VALID,22.9622,VALID,112,VALID,2.39336,
2011-03-14, 00:58:04,VALID,1003.53,VALID,0,INVALID,163.8,VALID,0,VALID,22.9817,VALID,108,VALID,1.9707,
2011-03-14, 00:59:04,VALID,1003.47,VALID,0.5,INVALID,163.784,VALID,0,VALID,22.98,VALID,110,VALID,1.93164,
2011-03-14, 01:00:04,VALID,1003.42,VALID,0,INVALID,163.784,VALID,0.100563,VALID,22.98,VALID,96,VALID,0.994141,
2011-03-14, 01:01:04,VALID,1003.39,VALID,0,INVALID,163.762,VALID,0,VALID,23.0012,VALID,109,VALID,1.45977,
2011-03-14, 01:02:04,VALID,1003.42,VALID,0.5,INVALID,163.792,VALID,0,VALID,22.9994,VALID,86,VALID,1.86133,
2011-03-14, 01:03:04,VALID,1003.38,VALID,0,INVALID,163.784,VALID,0,VALID,23.0206,VALID,96,VALID,1.31602,
2011-03-14, 01:04:04,VALID,1003.38,VALID,0,INVALID,163.8,VALID,0,VALID,23.0595,VALID,86,VALID,0.964453,
2011-03-14, 01:05:04,VALID,1003.34,VALID,0,INVALID,163.807,VALID,0,VALID,23.0595,VALID,117,VALID,1.6668,
2011-03-14, 01:06:04,VALID,1003.33,VALID,0,INVALID,163.784,VALID,0,VALID,23.079,VALID,102,VALID,0.996875,
2011-03-14, 01:07:04,VALID,1003.34,VALID,0,INVALID,163.777,VALID,0.100563,VALID,23.0383,VALID,50,VALID,1.0918,
2011-03-14, 01:08:04,VALID,1003.36,VALID,0,INVALID,163.762,VALID,0.100563,VALID,23.079,VALID,109,VALID,1.65078,
2011-03-14, 01:09:04,VALID,1003.35,VALID,0,INVALID,163.792,VALID,0.100563,VALID,23.0578,VALID,88,VALID,1.36523,
2011-03-14, 01:10:04,VALID,1003.34,VALID,0,INVALID,163.777,VALID,0.100563,VALID,23.0578,VALID,108,VALID,1.25469,
2011-03-14, 01:11:04,VALID,1003.31,VALID,0.5,INVALID,163.792,VALID,0.100563,VALID,23.0578,VALID,123,VALID,1.11914,
2011-03-14, 01:12:04,VALID,1003.32,VALID,0,INVALID,163.762,VALID,0,VALID,23.0984,VALID,121,VALID,1.05586,
2011-03-14, 01:13:04,VALID,1003.28,VALID,0,INVALID,163.807,VALID,0,VALID,23.079,VALID,127,VALID,1.63633,
2011-03-14, 01:14:04,VALID,1003.28,VALID,0.5,INVALID,163.784,VALID,0,VALID,23.1002,VALID,95,VALID,1.24805,
2011-03-14, 01:15:04,VALID,1003.26,VALID,0,INVALID,163.784,VALID,0,VALID,23.1197,VALID,81,VALID,1.09766,
2011-03-14, 01:16:04,VALID,1003.22,VALID,0,INVALID,163.769,VALID,0,VALID,23.0984,VALID,114,VALID,1.01563,
2011-03-14, 01:17:04,VALID,1003.18,VALID,0,INVALID,163.777,VALID,0,VALID,23.1197,VALID,130,VALID,0.9125,
2011-03-14, 01:18:04,VALID,1003.19,VALID,0.5,INVALID,163.762,VALID,0,VALID,23.0984,VALID,136,VALID,0.745703,
2011-03-14, 01:19:04,VALID,1003.17,VALID,0,INVALID,163.769,VALID,0,VALID,23.1391,VALID,129,VALID,0.639453,
2011-03-14, 01:20:04,VALID,1003.16,VALID,0,INVALID,163.777,VALID,0,VALID,23.1391,VALID,129,VALID,0.382422,
2011-03-14, 01:21:04,VALID,1003.18,VALID,0,INVALID,163.784,VALID,0,VALID,23.1586,VALID,132,VALID,0.858203,
2011-03-14, 01:22:04,VALID,1003.17,VALID,0,INVALID,163.769,VALID,0,VALID,23.1975,VALID,126,VALID,0.685938,
2011-03-14, 01:23:04,VALID,1003.17,VALID,0,INVALID,163.762,VALID,0,VALID,23.1975,VALID,127,VALID,0.582812,
2011-03-14, 01:24:04,VALID,1003.18,VALID,0,INVALID,163.792,VALID,0,VALID,23.1975,VALID,127,VALID,0.525391,
2011-03-14, 01:25:04,VALID,1003.21,VALID,0,INVALID,163.746,VALID,0,VALID,23.1975,VALID,127,VALID,0.178125,
2011-03-14, 01:26:04,VALID,1003.18,VALID,0,INVALID,163.777,VALID,0,VALID,23.217,VALID,127,VALID,0.148438,
2011-03-14, 01:27:04,VALID,1003.23,VALID,0,INVALID,163.762,VALID,0,VALID,23.2364,VALID,110,VALID,1.17969,
2011-03-14, 01:28:04,VALID,1003.21,VALID,0,INVALID,163.769,VALID,0,VALID,23.2347,VALID,116,VALID,1.1543,
2011-03-14, 01:29:04,VALID,1003.2,VALID,0,INVALID,163.762,VALID,0,VALID,23.2541,VALID,140,VALID,0.524219,
2011-03-14, 01:30:04,VALID,1003.19,VALID,0,INVALID,163.762,VALID,0,VALID,23.2736,VALID,136,VALID,0.471484,
2011-03-14, 01:31:04,VALID,1003.16,VALID,0,INVALID,163.754,VALID,0,VALID,23.2524,VALID,96,VALID,0.460938,
2011-03-14, 01:32:04,VALID,1003.16,VALID,0.5,INVALID,163.754,VALID,0,VALID,23.2931,VALID,115,VALID,0.944531,
2011-03-14, 01:33:04,VALID,1003.11,VALID,0,INVALID,163.769,VALID,0,VALID,23.3337,VALID,113,VALID,0.258594,
2011-03-14, 01:34:04,VALID,1003.08,VALID,0,INVALID,163.769,VALID,0,VALID,23.332,VALID,110,VALID,0.291016,
2011-03-14, 01:35:04,VALID,1003.09,VALID,0,INVALID,163.739,VALID,0,VALID,23.332,VALID,13,VALID,0.699219,
2011-03-14, 01:36:04,VALID,1003.05,VALID,0,INVALID,163.754,VALID,0,VALID,23.332,VALID,32,VALID,0.605859,
2011-03-14, 01:37:04,VALID,1003.05,VALID,0,INVALID,163.754,VALID,0,VALID,23.332,VALID,43,VALID,0.0503906,
2011-03-14, 01:38:04,VALID,1003.04,VALID,0,INVALID,163.746,VALID,0,VALID,23.3125,VALID,43,VALID,0,
2011-03-14, 01:39:04,VALID,1003.01,VALID,0,INVALID,163.762,VALID,0,VALID,23.3107,VALID,43,VALID,0,
2011-03-14, 01:40:04,VALID,1003.02,VALID,0,INVALID,163.739,VALID,0,VALID,23.3514,VALID,43,VALID,0,
2011-03-14, 01:41:04,VALID,1003.03,VALID,0,INVALID,163.754,VALID,0,VALID,23.3727,VALID,43,VALID,0.119531,
2011-03-14, 01:42:04,VALID,1003.06,VALID,0,INVALID,163.762,VALID,0,VALID,23.3514,VALID,43,VALID,0.329688,
2011-03-14, 01:43:04,VALID,1003.08,VALID,0,INVALID,163.746,VALID,0,VALID,23.3709,VALID,43,VALID,0.269141,
2011-03-14, 01:44:04,VALID,1003.1,VALID,0,INVALID,163.746,VALID,0,VALID,23.3727,VALID,43,VALID,0.587891,
2011-03-14, 01:45:04,VALID,1003.1,VALID,0,INVALID,163.777,VALID,0,VALID,23.3514,VALID,238,VALID,0.803516,
2011-03-14, 01:46:04,VALID,1003.14,VALID,0,INVALID,163.739,VALID,0,VALID,23.332,VALID,223,VALID,0.147266,
2011-03-14, 01:47:04,VALID,1003.16,VALID,0,INVALID,163.762,VALID,0,VALID,23.3532,VALID,223,VALID,0.337891,
2011-03-14, 01:48:04,VALID,1003.14,VALID,0,INVALID,163.739,VALID,0,VALID,23.3337,VALID,223,VALID,0,
2011-03-14, 01:49:04,VALID,1003.11,VALID,0,INVALID,163.777,VALID,0,VALID,23.332,VALID,223,VALID,0.096875,
2011-03-14, 01:50:04,VALID,1003.1,VALID,0,INVALID,163.777,VALID,0,VALID,23.3497,VALID,223,VALID,0.421484,
2011-03-14, 01:51:04,VALID,1003.07,VALID,0,INVALID,163.723,VALID,0,VALID,23.3921,VALID,329,VALID,0.673047,
2011-03-14, 01:52:04,VALID,1003.04,VALID,0,INVALID,163.769,VALID,0,VALID,23.3514,VALID,338,VALID,0.567578,
2011-03-14, 01:53:04,VALID,1003.01,VALID,0,INVALID,163.746,VALID,0,VALID,23.3727,VALID,339,VALID,0.595312,
2011-03-14, 01:54:04,VALID,1003.03,VALID,0,INVALID,163.762,VALID,0,VALID,23.3532,VALID,345,VALID,0.796875,
2011-03-14, 01:55:04,VALID,1003.03,VALID,0,INVALID,163.762,VALID,0,VALID,23.3514,VALID,347,VALID,0.705859,
2011-03-14, 01:56:04,VALID,1002.99,VALID,0,INVALID,163.731,VALID,0,VALID,23.3532,VALID,346,VALID,0.641797,
2011-03-14, 01:57:04,VALID,1003.01,VALID,0,INVALID,163.746,VALID,0,VALID,23.3337,VALID,347,VALID,0.618359,
2011-03-14, 01:58:04,VALID,1002.97,VALID,0,INVALID,163.762,VALID,0,VALID,23.3143,VALID,351,VALID,0.858203,
2011-03-14, 01:59:04,VALID,1002.93,VALID,0,INVALID,163.762,VALID,0,VALID,23.2736,VALID,351,VALID,0.942187,
2011-03-14, 02:00:04,VALID,1002.94,VALID,0,INVALID,163.746,VALID,0,VALID,23.2541,VALID,347,VALID,1.09492,
2011-03-14, 02:01:04,VALID,1002.9,VALID,0,INVALID,163.754,VALID,0,VALID,23.2559,VALID,353,VALID,1.24883,
2011-03-14, 02:02:04,VALID,1002.89,VALID,0,INVALID,163.754,VALID,0,VALID,23.2364,VALID,360,VALID,0.876953,
2011-03-14, 02:03:04,VALID,1002.91,VALID,0,INVALID,163.769,VALID,0,VALID,23.2152,VALID,353,VALID,1.18164,
2011-03-14, 02:04:04,VALID,1002.94,VALID,0,INVALID,163.754,VALID,0,VALID,23.1957,VALID,5,VALID,1.00781,
2011-03-14, 02:05:04,VALID,1002.92,VALID,0,INVALID,163.762,VALID,0,VALID,23.1957,VALID,342,VALID,0.776953,
2011-03-14, 02:06:04,VALID,1002.93,VALID,0,INVALID,163.792,VALID,0,VALID,23.217,VALID,359,VALID,0.338672,
2011-03-14, 02:07:04,VALID,1002.89,VALID,0,INVALID,163.777,VALID,0,VALID,23.1957,VALID,356,VALID,0.613672,
2011-03-14, 02:08:04,VALID,1002.85,VALID,0,INVALID,163.784,VALID,0,VALID,23.1957,VALID,338,VALID,0.226953,
2011-03-14, 02:09:04,VALID,1002.84,VALID,0,INVALID,163.792,VALID,0,VALID,23.217,VALID,338,VALID,0.23125,
2011-03-14, 02:10:04,VALID,1002.81,VALID,0,INVALID,163.769,VALID,0,VALID,23.1957,VALID,338,VALID,0,
2011-03-14, 02:11:04,VALID,1002.79,VALID,0,INVALID,163.784,VALID,0,VALID,23.2152,VALID,328,VALID,0.293359,
2011-03-14, 02:12:04,VALID,1002.76,VALID,0,INVALID,163.784,VALID,0,VALID,23.2152,VALID,244,VALID,0.816016,
2011-03-14, 02:13:04,VALID,1002.73,VALID,0,INVALID,163.784,VALID,0,VALID,23.2364,VALID,221,VALID,1.01016,
2011-03-14, 02:14:04,VALID,1002.73,VALID,0.5,INVALID,163.777,VALID,0,VALID,23.2364,VALID,220,VALID,0.774219,
2011-03-14, 02:15:04,VALID,1002.79,VALID,0,INVALID,163.746,VALID,0,VALID,23.2152,VALID,218,VALID,0.417188,
2011-03-14, 02:16:04,VALID,1002.86,VALID,0,INVALID,163.762,VALID,0,VALID,23.2541,VALID,207,VALID,0.6,
2011-03-14, 02:17:04,VALID,1002.94,VALID,0,INVALID,163.754,VALID,0,VALID,23.2736,VALID,131,VALID,1.47305,
2011-03-14, 02:18:04,VALID,1003.02,VALID,0,INVALID,163.754,VALID,0,VALID,23.2541,VALID,106,VALID,1.2043,
2011-03-14, 02:19:04,VALID,1002.96,VALID,1,INVALID,163.754,VALID,0,VALID,23.2559,VALID,91,VALID,0.514844,
2011-03-14, 02:20:04,VALID,1002.97,VALID,1,INVALID,163.746,VALID,0,VALID,23.2541,VALID,58,VALID,0.354297,
2011-03-14, 02:21:04,VALID,1003.08,VALID,0,INVALID,163.769,VALID,0,VALID,23.2754,VALID,102,VALID,1.02656,
2011-03-14, 02:22:04,VALID,1003.03,VALID,1.5,INVALID,163.762,VALID,0,VALID,23.2931,VALID,108,VALID,0.734375,
2011-03-14, 02:23:04,VALID,1002.96,VALID,2,INVALID,163.8,VALID,0,VALID,23.2541,VALID,109,VALID,0.288672,
2011-03-14, 02:24:04,VALID,1002.93,VALID,1.5,INVALID,163.762,VALID,0,VALID,23.2559,VALID,117,VALID,0.519922,
2011-03-14, 02:25:04,VALID,1002.91,VALID,1,INVALID,163.746,VALID,0,VALID,23.2948,VALID,117,VALID,0.498437,
2011-03-14, 02:26:04,VALID,1002.96,VALID,1,INVALID,163.762,VALID,0,VALID,23.3337,VALID,117,VALID,0.80625,
2011-03-14, 02:27:04,VALID,1003.01,VALID,1,INVALID,163.754,VALID,0,VALID,23.3125,VALID,85,VALID,0.811328,
2011-03-14, 02:28:04,VALID,1002.99,VALID,1.5,INVALID,163.769,VALID,0,VALID,23.3143,VALID,104,VALID,0.350781,
2011-03-14, 02:29:04,VALID,1002.94,VALID,1.5,INVALID,163.777,VALID,0,VALID,23.3921,VALID,81,VALID,0.563281,
2011-03-14, 02:30:04,VALID,1002.92,VALID,1,INVALID,163.769,VALID,0,VALID,23.3691,VALID,38,VALID,0.672656,
2011-03-14, 02:31:04,VALID,1002.87,VALID,1,INVALID,163.777,VALID,0,VALID,23.4098,VALID,33,VALID,0.257422,
2011-03-14, 02:32:04,VALID,1002.84,VALID,1,INVALID,163.739,VALID,0,VALID,23.4487,VALID,348,VALID,0.506641,
2011-03-14, 02:33:04,VALID,1002.76,VALID,1,INVALID,163.754,VALID,0,VALID,23.4877,VALID,299,VALID,0.399219,
2011-03-14, 02:34:04,VALID,1002.75,VALID,0.5,INVALID,163.739,VALID,0,VALID,23.5071,VALID,299,VALID,0.0269531,
2011-03-14, 02:35:04,VALID,1002.79,VALID,0.5,INVALID,163.739,VALID,0,VALID,23.5053,VALID,293,VALID,0.600781,
2011-03-14, 02:36:04,VALID,1002.88,VALID,0.5,INVALID,163.731,VALID,0,VALID,23.5266,VALID,292,VALID,0.00585938,
2011-03-14, 02:37:04,VALID,1002.92,VALID,0,INVALID,163.762,VALID,0,VALID,23.5053,VALID,292,VALID,0.173438,
2011-03-14, 02:38:04,VALID,1002.98,VALID,0,INVALID,163.754,VALID,0,VALID,23.5266,VALID,292,VALID,0.184766,
2011-03-14, 02:39:04,VALID,1003.04,VALID,0.5,INVALID,163.716,VALID,0,VALID,23.5266,VALID,322,VALID,0.1375,
2011-03-14, 02:40:04,VALID,1003.08,VALID,0.5,INVALID,163.739,VALID,0,VALID,23.546,VALID,27,VALID,0.43125,
2011-03-14, 02:41:04,VALID,1002.98,VALID,1.5,INVALID,163.731,VALID,0.100563,VALID,23.5266,VALID,349,VALID,1.26523,
2011-03-14, 02:42:04,VALID,1002.95,VALID,1,INVALID,163.731,VALID,0,VALID,23.4877,VALID,2,VALID,1.06055,
2011-03-14, 02:43:04,VALID,1002.94,VALID,0.5,INVALID,163.708,VALID,0,VALID,23.4487,VALID,351,VALID,0.688281,
2011-03-14, 02:44:04,VALID,1002.92,VALID,0.5,INVALID,163.739,VALID,0,VALID,23.4487,VALID,354,VALID,1.04023,
2011-03-14, 02:45:04,VALID,1002.9,VALID,0.5,INVALID,163.762,VALID,0,VALID,23.4098,VALID,344,VALID,0.511719,
2011-03-14, 02:46:04,VALID,1002.83,VALID,0.5,INVALID,163.746,VALID,0,VALID,23.4505,VALID,25,VALID,0.699609,
2011-03-14, 02:47:04,VALID,1002.82,VALID,0.5,INVALID,163.754,VALID,0,VALID,23.4293,VALID,345,VALID,0.982422,
2011-03-14, 02:48:04,VALID,1002.8,VALID,0.5,INVALID,163.762,VALID,0,VALID,23.4311,VALID,348,VALID,1.10742,
2011-03-14, 02:49:04,VALID,1002.78,VALID,0,INVALID,163.739,VALID,0,VALID,23.3904,VALID,342,VALID,0.875391,
2011-03-14, 02:50:04,VALID,1002.76,VALID,0,INVALID,163.762,VALID,0,VALID,23.4098,VALID,346,VALID,1.48867,
2011-03-14, 02:51:04,VALID,1002.76,VALID,0.5,INVALID,163.769,VALID,0,VALID,23.4098,VALID,356,VALID,1.36953,
2011-03-14, 02:52:04,VALID,1002.76,VALID,0,INVALID,163.739,VALID,0.100563,VALID,23.4293,VALID,348,VALID,1.2625,
2011-03-14, 02:53:04,VALID,1002.78,VALID,0.5,INVALID,163.769,VALID,0,VALID,23.4293,VALID,8,VALID,1.125,
2011-03-14, 02:54:04,VALID,1002.73,VALID,0,INVALID,163.754,VALID,0,VALID,23.4098,VALID,13,VALID,1.33242,
2011-03-14, 02:55:04,VALID,1002.74,VALID,0.5,INVALID,163.754,VALID,0,VALID,23.4293,VALID,29,VALID,0.575,
2011-03-14, 02:56:04,VALID,1002.72,VALID,0,INVALID,163.754,VALID,0,VALID,23.408,VALID,5,VALID,1.13437,
2011-03-14, 02:57:04,VALID,1002.73,VALID,0,INVALID,163.739,VALID,0,VALID,23.4505,VALID,19,VALID,0.644922,
2011-03-14, 02:58:04,VALID,1002.72,VALID,0,INVALID,163.739,VALID,0,VALID,23.4098,VALID,353,VALID,0.304297,
2011-03-14, 02:59:04,VALID,1002.72,VALID,0,INVALID,163.746,VALID,0,VALID,23.4116,VALID,357,VALID,0.586328,
2011-03-14, 03:00:04,VALID,1002.76,VALID,0.5,INVALID,163.754,VALID,0.100563,VALID,23.4098,VALID,357,VALID,0.362891,
2011-03-14, 03:01:04,VALID,1002.75,VALID,0,INVALID,163.762,VALID,0,VALID,23.4116,VALID,357,VALID,0.174609,
2011-03-14, 03:02:04,VALID,1002.73,VALID,0,INVALID,163.762,VALID,0,VALID,23.3904,VALID,357,VALID,0,
2011-03-14, 03:03:04,VALID,1002.71,VALID,0,INVALID,163.762,VALID,0,VALID,23.4116,VALID,357,VALID,0.355859,
2011-03-14, 03:04:04,VALID,1002.76,VALID,0,INVALID,163.746,VALID,0,VALID,23.3709,VALID,357,VALID,0.194922,
2011-03-14, 03:05:04,VALID,1002.73,VALID,0,INVALID,163.746,VALID,0,VALID,23.3709,VALID,357,VALID,0,
2011-03-14, 03:06:04,VALID,1002.75,VALID,0,INVALID,163.769,VALID,0,VALID,23.3709,VALID,357,VALID,0.273828,
2011-03-14, 03:07:04,VALID,1002.74,VALID,0,INVALID,163.762,VALID,0,VALID,23.3709,VALID,324,VALID,0.399609,
2011-03-14, 03:08:04,VALID,1002.75,VALID,0,INVALID,163.769,VALID,0,VALID,23.3709,VALID,324,VALID,0.165625,
2011-03-14, 03:09:04,VALID,1002.73,VALID,0,INVALID,163.762,VALID,0,VALID,23.3709,VALID,324,VALID,0.0800781,
2011-03-14, 03:10:04,VALID,1002.76,VALID,0,INVALID,163.754,VALID,0,VALID,23.3904,VALID,174,VALID,0.630469,
2011-03-14, 03:11:04,VALID,1002.72,VALID,0,INVALID,163.769,VALID,0.100563,VALID,23.3904,VALID,174,VALID,0.675391,
2011-03-14, 03:12:04,VALID,1002.71,VALID,0,INVALID,163.746,VALID,0,VALID,23.3904,VALID,174,VALID,0.498437,
2011-03-14, 03:13:04,VALID,1002.69,VALID,0,INVALID,163.769,VALID,0,VALID,23.4098,VALID,174,VALID,0.257813,
2011-03-14, 03:14:04,VALID,1002.69,VALID,0,INVALID,163.762,VALID,0,VALID,23.4098,VALID,174,VALID,0.00585938,
2011-03-14, 03:15:04,VALID,1002.67,VALID,0,INVALID,163.754,VALID,0,VALID,23.3904,VALID,174,VALID,0,
2011-03-14, 03:16:04,VALID,1002.66,VALID,0.5,INVALID,163.754,VALID,0,VALID,23.3904,VALID,174,VALID,0,
2011-03-14, 03:17:04,VALID,1002.68,VALID,0,INVALID,163.746,VALID,0,VALID,23.3904,VALID,174,VALID,0,
2011-03-14, 03:18:04,VALID,1002.66,VALID,0,INVALID,163.762,VALID,0,VALID,23.4098,VALID,174,VALID,0,
2011-03-14, 03:19:04,VALID,1002.65,VALID,0,INVALID,163.762,VALID,0,VALID,23.4505,VALID,174,VALID,0,
2011-03-14, 03:20:04,VALID,1002.63,VALID,0,INVALID,163.754,VALID,0.100563,VALID,23.4293,VALID,174,VALID,0,
2011-03-14, 03:21:04,VALID,1002.62,VALID,0,INVALID,163.754,VALID,0,VALID,23.4098,VALID,174,VALID,0,
2011-03-14, 03:22:04,VALID,1002.66,VALID,0,INVALID,163.739,VALID,0,VALID,23.4311,VALID,174,VALID,0,
2011-03-14, 03:23:04,VALID,1002.67,VALID,0,INVALID,163.762,VALID,0,VALID,23.3904,VALID,174,VALID,0,
2011-03-14, 03:24:04,VALID,1002.65,VALID,0,INVALID,163.754,VALID,0.100563,VALID,23.3709,VALID,174,VALID,0,
2011-03-14, 03:25:04,VALID,1002.65,VALID,0,INVALID,163.754,VALID,0.100563,VALID,23.3709,VALID,174,VALID,0,
2011-03-14, 03:26:04,VALID,1002.65,VALID,0,INVALID,163.769,VALID,0,VALID,23.332,VALID,174,VALID,0,
2011-03-14, 03:27:04,VALID,1002.65,VALID,0,INVALID,163.746,VALID,0,VALID,23.332,VALID,174,VALID,0,
2011-03-14, 03:28:04,VALID,1002.63,VALID,0,INVALID,163.754,VALID,0.100563,VALID,23.3532,VALID,174,VALID,0,
2011-03-14, 03:29:04,VALID,1002.64,VALID,0,INVALID,163.754,VALID,0,VALID,23.3125,VALID,174,VALID,0,
2011-03-14, 03:30:04,VALID,1002.65,VALID,0,INVALID,163.769,VALID,0,VALID,23.3107,VALID,174,VALID,0,
2011-03-14, 03:31:04,VALID,1002.61,VALID,0,INVALID,163.769,VALID,0.100563,VALID,23.332,VALID,170,VALID,0,
2011-03-14, 03:32:04,VALID,1002.6,VALID,0,INVALID,163.754,VALID,0.100563,VALID,23.332,VALID,170,VALID,0,
2011-03-14, 03:33:04,VALID,1002.59,VALID,0,INVALID,163.754,VALID,0.100563,VALID,23.3514,VALID,166,VALID,0,
2011-03-14, 03:34:04,VALID,1002.6,VALID,0.5,INVALID,163.746,VALID,0,VALID,23.332,VALID,158,VALID,0,
2011-03-14, 03:35:04,VALID,1002.58,VALID,0,INVALID,163.739,VALID,0,VALID,23.3107,VALID,149,VALID,0.389062,
2011-03-14, 03:36:04,VALID,1002.56,VALID,0,INVALID,163.754,VALID,0,VALID,23.332,VALID,149,VALID,0.257422,
2011-03-14, 03:37:04,VALID,1002.55,VALID,0,INVALID,163.754,VALID,0,VALID,23.332,VALID,149,VALID,0.256641,
2011-03-14, 03:38:04,VALID,1002.51,VALID,0,INVALID,163.739,VALID,0.100563,VALID,23.332,VALID,149,VALID,0.309766,
2011-03-14, 03:39:04,VALID,1002.5,VALID,0,INVALID,163.746,VALID,0,VALID,23.332,VALID,149,VALID,0.412891,
2011-03-14, 03:40:04,VALID,1002.5,VALID,0,INVALID,163.769,VALID,0,VALID,23.332,VALID,149,VALID,0.271875,